LUJ142 SBGL-GVAC

Flight info

Callsign LUJ142
Flight time 5h 51m
Altitude 45000
Route IMBAP UZ42 ANBEX DCT UBRUT DCT OBKAD DCT 02N030W DCT IRAKU DCT ODMEN
Aircraft C750/M-SBDE3FGHIRWXY/SB1

Departure

Time 2026-04-26 07:39
Airport Rio Galeão – Tom Jobim International Airport (SBGL)

Arrival

Time 2026-04-26 13:30
Airport Amílcar Cabral International Airport (GVAC)
Time Latitude Longitude Altitude Speed Heading
2026-04-26 07:20 -22.80097 -43.22589 37 ft 0 kts 174°
2026-04-26 07:24 -22.80085 -43.22596 34 ft 2 kts 121°
2026-04-26 07:24 -22.80081 -43.22613 34 ft 2 kts 90°
2026-04-26 07:24 -22.80081 -43.22625 34 ft 0 kts 82°
2026-04-26 07:28 -22.80072 -43.22609 34 ft 5 kts 41°
2026-04-26 07:28 -22.80020 -43.22599 34 ft 10 kts 344°
2026-04-26 07:29 -22.79975 -43.22615 34 ft 0 kts 348°
2026-04-26 07:31 -22.79973 -43.22615 34 ft 1 kts 346°
2026-04-26 07:31 -22.79961 -43.22617 34 ft 3 kts 351°
2026-04-26 07:31 -22.79911 -43.22633 34 ft 12 kts 343°
2026-04-26 07:31 -22.79823 -43.22661 34 ft 10 kts 341°
2026-04-26 07:32 -22.79749 -43.22680 34 ft 11 kts 344°
2026-04-26 07:32 -22.79709 -43.22716 34 ft 6 kts 288°
2026-04-26 07:32 -22.79716 -43.22768 35 ft 9 kts 253°
2026-04-26 07:32 -22.79740 -43.22859 35 ft 16 kts 255°
2026-04-26 07:33 -22.79777 -43.23005 31 ft 25 kts 254°
2026-04-26 07:33 -22.79829 -43.23201 28 ft 27 kts 255°
2026-04-26 07:33 -22.79867 -43.23358 26 ft 26 kts 256°
2026-04-26 07:34 -22.79916 -43.23541 24 ft 24 kts 256°
2026-04-26 07:34 -22.79959 -43.23710 23 ft 22 kts 255°
2026-04-26 07:34 -22.80000 -43.23869 23 ft 21 kts 254°
2026-04-26 07:34 -22.80036 -43.24006 29 ft 17 kts 254°
2026-04-26 07:35 -22.80073 -43.24152 27 ft 22 kts 254°
2026-04-26 07:35 -22.80113 -43.24308 26 ft 21 kts 254°
2026-04-26 07:35 -22.80150 -43.24453 25 ft 21 kts 256°
2026-04-26 07:35 -22.80194 -43.24631 26 ft 25 kts 255°
2026-04-26 07:36 -22.80241 -43.24802 27 ft 22 kts 255°
2026-04-26 07:36 -22.80282 -43.24952 24 ft 21 kts 253°
2026-04-26 07:36 -22.80320 -43.25103 23 ft 19 kts 252°
2026-04-26 07:36 -22.80355 -43.25229 27 ft 15 kts 253°
2026-04-26 07:37 -22.80353 -43.25296 24 ft 8 kts 292°
2026-04-26 07:37 -22.80328 -43.25349 25 ft 10 kts 299°
2026-04-26 07:37 -22.80292 -43.25417 24 ft 10 kts 300°
2026-04-26 07:37 -22.80255 -43.25469 22 ft 8 kts 327°
2026-04-26 07:38 -22.80199 -43.25475 21 ft 8 kts 13°
2026-04-26 07:38 -22.80171 -43.25451 22 ft 0 kts 75°
2026-04-26 07:38 -22.80169 -43.25440 21 ft 11 kts 75°
2026-04-26 07:38 -22.80059 -43.25038 26 ft 104 kts 71°
2026-04-26 07:39 -22.79818 -43.24054 138 ft 148 kts 75°
2026-04-26 07:39 -22.79636 -43.23333 473 ft 152 kts 75°
2026-04-26 07:39 -22.79391 -43.22172 1009 ft 159 kts 78°
2026-04-26 07:39 -22.79181 -43.20963 1567 ft 161 kts 77°
2026-04-26 07:40 -22.78968 -43.19818 2297 ft 150 kts 76°
2026-04-26 07:40 -22.78709 -43.18680 2726 ft 162 kts 73°
2026-04-26 07:40 -22.78430 -43.17497 3301 ft 161 kts 75°
2026-04-26 07:40 -22.78159 -43.16284 3705 ft 175 kts 75°
2026-04-26 07:41 -22.77856 -43.14908 3875 ft 206 kts 76°
2026-04-26 07:41 -22.77496 -43.13272 4181 ft 234 kts 76°
2026-04-26 07:41 -22.77104 -43.11484 4533 ft 258 kts 76°
2026-04-26 07:41 -22.76672 -43.09523 4952 ft 277 kts 76°
2026-04-26 07:42 -22.76216 -43.07453 5781 ft 279 kts 77°
2026-04-26 07:42 -22.75756 -43.05417 6467 ft 285 kts 76°
2026-04-26 07:42 -22.74778 -43.03513 7059 ft 293 kts 46°
2026-04-26 07:42 -22.73069 -43.02335 7856 ft 295 kts 19°
2026-04-26 07:43 -22.71081 -43.01794 8694 ft 296 kts 11°
2026-04-26 07:43 -22.69044 -43.01332 9468 ft 302 kts 11°
2026-04-26 07:43 -22.67000 -43.00833 10146 ft 308 kts 12°
2026-04-26 07:43 -22.64803 -43.00272 10365 ft 331 kts 12°
2026-04-26 07:44 -22.62514 -42.99700 10405 ft 357 kts 12°
2026-04-26 07:44 -22.59976 -42.99077 10738 ft 369 kts 12°
2026-04-26 07:44 -22.57480 -42.98460 11522 ft 367 kts 12°
2026-04-26 07:44 -22.54947 -42.97829 12155 ft 370 kts 12°
2026-04-26 07:45 -22.52432 -42.97205 12819 ft 372 kts 12°
2026-04-26 07:45 -22.49946 -42.96591 13458 ft 374 kts 11°
2026-04-26 07:45 -22.47431 -42.95969 14032 ft 376 kts 11°
2026-04-26 07:45 -22.44769 -42.95310 14570 ft 380 kts 11°
2026-04-26 07:46 -22.42185 -42.94669 15062 ft 384 kts 11°
2026-04-26 07:46 -22.39540 -42.94016 15584 ft 388 kts 10°
2026-04-26 07:46 -22.36898 -42.93363 16093 ft 392 kts 10°
2026-04-26 07:46 -22.34222 -42.92705 16647 ft 395 kts
2026-04-26 07:47 -22.31554 -42.92441 17063 ft 395 kts 354°
2026-04-26 07:47 -22.28840 -42.92814 17687 ft 393 kts 347°
2026-04-26 07:47 -22.26148 -42.93275 18032 ft 380 kts 347°
2026-04-26 07:47 -22.23543 -42.93550 17947 ft 386 kts 357°
2026-04-26 07:48 -22.20806 -42.93087 17953 ft 410 kts 13°
2026-04-26 07:48 -22.18181 -42.91864 18569 ft 415 kts 25°
2026-04-26 07:48 -22.15614 -42.90318 19118 ft 419 kts 26°
2026-04-26 07:48 -22.13030 -42.88735 19652 ft 422 kts 26°
2026-04-26 07:49 -22.10464 -42.87170 20213 ft 425 kts 26°
2026-04-26 07:49 -22.07890 -42.85614 20771 ft 428 kts 26°
2026-04-26 07:49 -22.05279 -42.84035 21306 ft 432 kts 27°
2026-04-26 07:50 -22.00006 -42.80832 22405 ft 438 kts 27°
2026-04-26 07:50 -21.97331 -42.79213 22956 ft 441 kts 27°
2026-04-26 07:50 -21.94645 -42.77588 23481 ft 445 kts 27°
2026-04-26 07:50 -21.91933 -42.75945 23954 ft 448 kts 27°
2026-04-26 07:51 -21.89173 -42.74275 24384 ft 452 kts 27°
2026-04-26 07:51 -21.86468 -42.72640 24798 ft 456 kts 27°
2026-04-26 07:51 -21.83678 -42.70954 25230 ft 460 kts 27°
2026-04-26 07:51 -21.80898 -42.69273 25652 ft 464 kts 27°
2026-04-26 07:52 -21.78134 -42.67604 26073 ft 467 kts 27°
2026-04-26 07:52 -21.75252 -42.65864 26502 ft 471 kts 27°
2026-04-26 07:52 -21.72524 -42.64218 26913 ft 475 kts 27°
2026-04-26 07:52 -21.69547 -42.62422 27347 ft 479 kts 27°
2026-04-26 07:53 -21.66629 -42.60664 27783 ft 483 kts 27°
2026-04-26 07:53 -21.63747 -42.58927 28170 ft 487 kts 27°
2026-04-26 07:53 -21.60715 -42.57174 28577 ft 490 kts 25°
2026-04-26 07:53 -21.57693 -42.55435 28986 ft 494 kts 26°
2026-04-26 07:54 -21.54662 -42.53670 29386 ft 498 kts 26°
2026-04-26 07:54 -21.51613 -42.51905 29775 ft 502 kts 25°
2026-04-26 07:54 -21.48573 -42.50162 30144 ft 505 kts 25°
2026-04-26 07:54 -21.45431 -42.48359 30475 ft 508 kts 26°
2026-04-26 07:55 -21.42329 -42.46568 30852 ft 510 kts 26°
2026-04-26 07:55 -21.39192 -42.44757 31319 ft 509 kts 26°
2026-04-26 07:55 -21.36083 -42.42971 31874 ft 506 kts 26°
2026-04-26 07:55 -21.32995 -42.41199 32366 ft 505 kts 26°
2026-04-26 07:56 -21.29856 -42.39396 32877 ft 504 kts 26°
2026-04-26 07:56 -21.26770 -42.37621 33384 ft 502 kts 26°
2026-04-26 07:56 -21.23691 -42.35852 33900 ft 501 kts 26°
2026-04-26 07:56 -21.20619 -42.34091 34345 ft 500 kts 26°
2026-04-26 07:57 -21.17551 -42.32332 34819 ft 498 kts 26°
2026-04-26 07:57 -21.14499 -42.30582 35320 ft 496 kts 26°
2026-04-26 07:57 -21.11533 -42.28882 35788 ft 494 kts 25°
2026-04-26 07:57 -21.08529 -42.27162 36275 ft 492 kts 25°
2026-04-26 07:58 -21.05505 -42.25432 36765 ft 490 kts 25°
2026-04-26 07:58 -21.02519 -42.23722 37250 ft 488 kts 25°
2026-04-26 07:58 -20.99540 -42.22018 37745 ft 486 kts 25°
2026-04-26 07:58 -20.97573 -42.20895 38068 ft 485 kts 25°
2026-04-26 07:59 -20.93583 -42.18616 38756 ft 482 kts 25°
2026-04-26 07:59 -20.90634 -42.16930 39208 ft 480 kts 25°
2026-04-26 07:59 -20.88672 -42.15809 39501 ft 479 kts 25°
2026-04-26 07:59 -20.85693 -42.14109 39948 ft 477 kts 25°
2026-04-26 08:00 -20.82834 -42.12479 40380 ft 475 kts 25°
2026-04-26 08:00 -20.79854 -42.10780 40800 ft 473 kts 25°
2026-04-26 08:00 -20.76963 -42.09132 41204 ft 471 kts 25°
2026-04-26 08:00 -20.74089 -42.07494 41616 ft 469 kts 25°
2026-04-26 08:01 -20.71197 -42.05848 42023 ft 467 kts 25°
2026-04-26 08:01 -20.68324 -42.04213 42420 ft 465 kts 25°
2026-04-26 08:01 -20.65481 -42.02595 42789 ft 464 kts 25°
2026-04-26 08:01 -20.62632 -42.00974 43123 ft 462 kts 25°
2026-04-26 08:02 -20.59839 -41.99294 43434 ft 461 kts 27°
2026-04-26 08:02 -20.57099 -41.97661 43741 ft 459 kts 26°
2026-04-26 08:02 -20.54264 -41.95998 44060 ft 458 kts 26°
2026-04-26 08:02 -20.51489 -41.94344 44391 ft 457 kts 27°
2026-04-26 08:03 -20.48719 -41.92673 44690 ft 455 kts 26°
2026-04-26 08:03 -20.45967 -41.91028 44927 ft 454 kts 26°
2026-04-26 08:03 -20.43200 -41.89389 45092 ft 454 kts 26°
2026-04-26 08:03 -20.40391 -41.87722 45066 ft 459 kts 26°
2026-04-26 08:04 -20.34759 -41.84358 45083 ft 468 kts 26°
2026-04-26 08:04 -20.29009 -41.80943 45079 ft 476 kts 26°
2026-04-26 08:05 -20.23224 -41.77499 45078 ft 476 kts 27°
2026-04-26 08:05 -20.17490 -41.74096 45074 ft 475 kts 26°
2026-04-26 08:06 -20.11701 -41.70659 45070 ft 475 kts 27°
2026-04-26 08:06 -20.05927 -41.67236 45062 ft 475 kts 26°
2026-04-26 08:07 -20.00159 -41.63819 45059 ft 475 kts 26°
2026-04-26 08:07 -19.94362 -41.60387 45048 ft 475 kts 27°
2026-04-26 08:08 -19.88658 -41.57014 45048 ft 475 kts 27°
2026-04-26 08:08 -19.82938 -41.53633 45047 ft 475 kts 27°
2026-04-26 08:09 -19.77161 -41.50223 45054 ft 474 kts 27°
2026-04-26 08:09 -19.71375 -41.46810 45051 ft 475 kts 27°
2026-04-26 08:10 -19.65601 -41.43407 45049 ft 475 kts 27°
2026-04-26 08:10 -19.59928 -41.40066 45046 ft 475 kts 27°
2026-04-26 08:11 -19.54070 -41.36618 45038 ft 475 kts 27°
2026-04-26 08:11 -19.48282 -41.33215 45035 ft 475 kts 27°
2026-04-26 08:12 -19.42726 -41.29951 45032 ft 475 kts 27°
2026-04-26 08:12 -19.36954 -41.26563 45025 ft 474 kts 27°
2026-04-26 08:13 -19.31173 -41.23174 45025 ft 474 kts 27°
2026-04-26 08:13 -19.25389 -41.19787 45030 ft 475 kts 27°
2026-04-26 08:14 -19.19625 -41.16414 45035 ft 474 kts 27°
2026-04-26 08:14 -19.13868 -41.13049 45034 ft 474 kts 27°
2026-04-26 08:15 -19.08122 -41.09692 45035 ft 474 kts 27°
2026-04-26 08:15 -19.02351 -41.06324 45035 ft 474 kts 27°
2026-04-26 08:16 -18.96577 -41.02951 45036 ft 474 kts 27°
2026-04-26 08:16 -18.90808 -40.99587 45041 ft 474 kts 27°
2026-04-26 08:17 -18.84981 -40.96190 45034 ft 474 kts 27°
2026-04-26 08:17 -18.79204 -40.92825 45030 ft 474 kts 27°
2026-04-26 08:18 -18.73426 -40.89464 45039 ft 474 kts 27°
2026-04-26 08:18 -18.67577 -40.86062 45039 ft 474 kts 27°
2026-04-26 08:19 -18.61791 -40.82701 45031 ft 474 kts 27°
2026-04-26 08:19 -18.56020 -40.79350 45026 ft 473 kts 27°
2026-04-26 08:20 -18.50255 -40.76007 45034 ft 473 kts 27°
2026-04-26 08:20 -18.45458 -40.73225 45024 ft 473 kts 27°
2026-04-26 08:21 -18.39687 -40.69882 45031 ft 473 kts 27°
2026-04-26 08:21 -18.33927 -40.66551 45027 ft 472 kts 27°
2026-04-26 08:22 -18.28165 -40.63220 45028 ft 472 kts 27°
2026-04-26 08:22 -18.22406 -40.59894 45031 ft 473 kts 27°
2026-04-26 08:23 -18.16680 -40.56589 45029 ft 472 kts 27°
2026-04-26 08:23 -18.10920 -40.53268 45023 ft 472 kts 27°
2026-04-26 08:24 -18.05148 -40.49941 45030 ft 471 kts 27°
2026-04-26 08:24 -17.99439 -40.46654 45028 ft 472 kts 27°
2026-04-26 08:25 -17.93667 -40.43332 45027 ft 471 kts 27°
2026-04-26 08:25 -17.87909 -40.40022 45029 ft 471 kts 27°
2026-04-26 08:26 -17.82144 -40.36709 45036 ft 471 kts 27°
2026-04-26 08:26 -17.76430 -40.33433 45032 ft 471 kts 27°
2026-04-26 08:27 -17.70620 -40.30266 45039 ft 470 kts 26°
2026-04-26 08:27 -17.64886 -40.27091 45037 ft 470 kts 26°
2026-04-26 08:28 -17.59046 -40.23877 45037 ft 470 kts 26°
2026-04-26 08:28 -17.53193 -40.20656 45036 ft 470 kts 26°
2026-04-26 08:29 -17.47415 -40.17475 45035 ft 469 kts 26°
2026-04-26 08:29 -17.41630 -40.14299 45039 ft 469 kts 26°
2026-04-26 08:30 -17.35901 -40.11149 45040 ft 469 kts 26°
2026-04-26 08:30 -17.30028 -40.07928 45041 ft 469 kts 26°
2026-04-26 08:31 -17.24226 -40.04745 45043 ft 468 kts 26°
2026-04-26 08:31 -17.18446 -40.01578 45046 ft 468 kts 26°
2026-04-26 08:32 -17.12679 -39.98419 45046 ft 468 kts 26°
2026-04-26 08:32 -17.06957 -39.95287 45049 ft 467 kts 26°
2026-04-26 08:33 -17.01234 -39.92158 45045 ft 467 kts 26°
2026-04-26 08:33 -16.95476 -39.89011 45046 ft 467 kts 26°
2026-04-26 08:34 -16.89717 -39.85868 45054 ft 467 kts 26°
2026-04-26 08:34 -16.83957 -39.82725 45055 ft 467 kts 26°
2026-04-26 08:35 -16.78196 -39.79585 45056 ft 467 kts 26°
2026-04-26 08:35 -16.72400 -39.76428 45057 ft 467 kts 26°
2026-04-26 08:36 -16.66730 -39.73341 45053 ft 467 kts 26°
2026-04-26 08:36 -16.61012 -39.70230 45052 ft 467 kts 26°
2026-04-26 08:37 -16.55178 -39.67060 45050 ft 467 kts 26°
2026-04-26 08:37 -16.49493 -39.63971 45053 ft 467 kts 26°
2026-04-26 08:38 -16.43817 -39.60889 45053 ft 467 kts 26°
2026-04-26 08:38 -16.38105 -39.57790 45055 ft 466 kts 26°
2026-04-26 08:39 -16.32341 -39.54665 45052 ft 466 kts 26°
2026-04-26 08:39 -16.28186 -39.52413 45058 ft 466 kts 26°
2026-04-26 08:40 -16.24829 -39.50595 45052 ft 465 kts 26°
2026-04-26 08:40 -16.19084 -39.47485 45055 ft 465 kts 26°
2026-04-26 08:41 -16.14381 -39.44941 45050 ft 466 kts 26°
2026-04-26 08:41 -16.08550 -39.41788 45046 ft 465 kts 26°
2026-04-26 08:42 -16.02817 -39.38691 45047 ft 465 kts 26°
2026-04-26 08:42 -15.97110 -39.35609 45049 ft 464 kts 26°
2026-04-26 08:43 -15.91448 -39.32553 45042 ft 465 kts 26°
2026-04-26 08:43 -15.85731 -39.29469 45037 ft 464 kts 26°
2026-04-26 08:44 -15.80072 -39.26419 45035 ft 465 kts 26°
2026-04-26 08:44 -15.74342 -39.23332 45035 ft 465 kts 26°
2026-04-26 08:45 -15.68540 -39.20208 45039 ft 465 kts 26°
2026-04-26 08:45 -15.62817 -39.17130 45039 ft 465 kts 26°
2026-04-26 08:46 -15.57073 -39.14041 45044 ft 465 kts 26°
2026-04-26 08:46 -15.51318 -39.10949 45039 ft 466 kts 26°
2026-04-26 08:47 -15.45523 -39.07837 45033 ft 465 kts 26°
2026-04-26 08:47 -15.39825 -39.04779 45026 ft 465 kts 26°
2026-04-26 08:48 -15.34058 -39.01686 45025 ft 466 kts 26°
2026-04-26 08:48 -15.28358 -38.98632 45029 ft 466 kts 26°
2026-04-26 08:49 -15.22594 -38.95544 45033 ft 466 kts 26°
2026-04-26 08:49 -15.16795 -38.92440 45029 ft 466 kts 26°
2026-04-26 08:50 -15.11021 -38.89351 45031 ft 466 kts 26°
2026-04-26 08:50 -15.05287 -38.86287 45027 ft 467 kts 26°
2026-04-26 08:51 -14.96594 -38.81644 45030 ft 467 kts 26°
2026-04-26 08:52 -14.90856 -38.78581 45023 ft 467 kts 26°
2026-04-26 08:52 -14.85041 -38.75480 45025 ft 467 kts 26°
2026-04-26 08:53 -14.79332 -38.72437 45021 ft 468 kts 26°
2026-04-26 08:53 -14.73522 -38.69342 45021 ft 467 kts 26°
2026-04-26 08:54 -14.67816 -38.66304 45025 ft 467 kts 26°
2026-04-26 08:54 -14.62033 -38.63227 45028 ft 467 kts 26°
2026-04-26 08:55 -14.56249 -38.60151 45027 ft 467 kts 26°
2026-04-26 08:55 -14.50473 -38.57081 45023 ft 468 kts 26°
2026-04-26 08:56 -14.44677 -38.54003 45025 ft 468 kts 26°
2026-04-26 08:56 -14.38896 -38.50934 45030 ft 468 kts 26°
2026-04-26 08:57 -14.33101 -38.47860 45027 ft 468 kts 26°
2026-04-26 08:57 -14.27346 -38.44808 45022 ft 468 kts 26°
2026-04-26 08:58 -14.21547 -38.41735 45025 ft 468 kts 26°
2026-04-26 08:58 -14.15714 -38.38646 45024 ft 468 kts 26°
2026-04-26 08:59 -14.09912 -38.35575 45024 ft 468 kts 26°
2026-04-26 08:59 -14.04105 -38.32504 45020 ft 468 kts 26°
2026-04-26 09:00 -13.98315 -38.29443 45020 ft 468 kts 26°
2026-04-26 09:00 -13.92566 -38.26405 45022 ft 468 kts 26°
2026-04-26 09:01 -13.86779 -38.23349 45019 ft 468 kts 26°
2026-04-26 09:01 -13.80951 -38.20273 45022 ft 467 kts 26°
2026-04-26 09:02 -13.75194 -38.17236 45017 ft 467 kts 26°
2026-04-26 09:02 -13.69401 -38.14183 45017 ft 467 kts 26°
2026-04-26 09:03 -13.63619 -38.11136 45022 ft 467 kts 26°
2026-04-26 09:03 -13.57826 -38.08085 45022 ft 467 kts 26°
2026-04-26 09:04 -13.52049 -38.05045 45018 ft 467 kts 26°
2026-04-26 09:04 -13.46264 -38.02002 45020 ft 467 kts 26°
2026-04-26 09:05 -13.40472 -37.98957 45017 ft 467 kts 26°
2026-04-26 09:05 -13.34700 -37.95924 45018 ft 467 kts 26°
2026-04-26 09:06 -13.28912 -37.92884 45016 ft 467 kts 26°
2026-04-26 09:06 -13.23120 -37.89844 45019 ft 466 kts 26°
2026-04-26 09:07 -13.17330 -37.86807 45019 ft 466 kts 26°
2026-04-26 09:07 -13.11586 -37.83795 45020 ft 466 kts 26°
2026-04-26 09:08 -13.05772 -37.80748 45016 ft 466 kts 26°
2026-04-26 09:08 -12.99992 -37.77721 45016 ft 466 kts 26°
2026-04-26 09:09 -12.94247 -37.74713 45014 ft 466 kts 26°
2026-04-26 09:09 -12.88461 -37.71686 45015 ft 466 kts 26°
2026-04-26 09:10 -12.82683 -37.68665 45015 ft 466 kts 26°
2026-04-26 09:10 -12.77887 -37.66158 45015 ft 466 kts 26°
2026-04-26 09:11 -12.72069 -37.63118 45016 ft 466 kts 26°
2026-04-26 09:11 -12.66336 -37.60124 45012 ft 465 kts 26°
2026-04-26 09:12 -12.60558 -37.57109 45012 ft 466 kts 26°
2026-04-26 09:12 -12.54787 -37.54098 45011 ft 466 kts 26°
2026-04-26 09:13 -12.49007 -37.51085 45010 ft 467 kts 26°
2026-04-26 09:13 -12.43213 -37.48065 45013 ft 466 kts 26°
2026-04-26 09:14 -12.37414 -37.45045 45010 ft 466 kts 26°
2026-04-26 09:14 -12.31638 -37.42038 45013 ft 467 kts 26°
2026-04-26 09:15 -12.25838 -37.39020 45010 ft 466 kts 26°
2026-04-26 09:15 -12.20082 -37.36027 45010 ft 467 kts 26°
2026-04-26 09:16 -12.14289 -37.33015 45012 ft 466 kts 26°
2026-04-26 09:16 -12.08492 -37.30004 45008 ft 467 kts 26°
2026-04-26 09:17 -12.02708 -37.26999 45006 ft 467 kts 26°
2026-04-26 09:17 -11.96915 -37.23993 45005 ft 466 kts 26°
2026-04-26 09:18 -11.91127 -37.20990 45005 ft 467 kts 26°
2026-04-26 09:18 -11.85329 -37.17983 45003 ft 467 kts 26°
2026-04-26 09:19 -11.79533 -37.14979 45001 ft 468 kts 26°
2026-04-26 09:19 -11.73719 -37.11967 45003 ft 468 kts 26°
2026-04-26 09:20 -11.67908 -37.08958 45002 ft 468 kts 26°
2026-04-26 09:20 -11.62097 -37.05950 45005 ft 468 kts 26°
2026-04-26 09:21 -11.56278 -37.02941 45002 ft 468 kts 26°
2026-04-26 09:21 -11.50507 -36.99963 45001 ft 468 kts 26°
2026-04-26 09:22 -11.44682 -36.96955 45004 ft 469 kts 26°
2026-04-26 09:22 -11.38871 -36.93958 45002 ft 468 kts 26°
2026-04-26 09:23 -11.33054 -36.90958 45006 ft 468 kts 26°
2026-04-26 09:23 -11.27235 -36.87959 45003 ft 468 kts 26°
2026-04-26 09:24 -11.21411 -36.84958 45005 ft 468 kts 27°
2026-04-26 09:24 -11.15594 -36.81963 45003 ft 468 kts 26°
2026-04-26 09:25 -11.09790 -36.78976 45005 ft 468 kts 26°
2026-04-26 09:25 -11.03980 -36.75987 45006 ft 468 kts 26°
2026-04-26 09:26 -10.98166 -36.72997 45007 ft 468 kts 26°
2026-04-26 09:26 -10.92345 -36.70005 45005 ft 468 kts 26°
2026-04-26 09:27 -10.86530 -36.67017 45007 ft 467 kts 26°
2026-04-26 09:27 -10.80727 -36.64044 45006 ft 467 kts 26°
2026-04-26 09:28 -10.74897 -36.61130 45008 ft 467 kts 26°
2026-04-26 09:28 -10.69071 -36.58183 45010 ft 467 kts 26°
2026-04-26 09:29 -10.63253 -36.55260 45013 ft 466 kts 26°
2026-04-26 09:29 -10.57480 -36.52352 45011 ft 465 kts 26°
2026-04-26 09:30 -10.51641 -36.49417 45009 ft 466 kts 26°
2026-04-26 09:30 -10.45842 -36.46500 45012 ft 465 kts 26°
2026-04-26 09:31 -10.40034 -36.43582 45013 ft 466 kts 26°
2026-04-26 09:31 -10.34229 -36.40665 45019 ft 465 kts 26°
2026-04-26 09:32 -10.28419 -36.37748 45014 ft 465 kts 26°
2026-04-26 09:32 -10.22603 -36.34828 45015 ft 466 kts 26°
2026-04-26 09:33 -10.16796 -36.31914 45014 ft 466 kts 26°
2026-04-26 09:33 -10.11040 -36.29028 45012 ft 466 kts 26°
2026-04-26 09:34 -10.05262 -36.26131 45012 ft 466 kts 26°
2026-04-26 09:34 -9.99638 -36.23312 45012 ft 466 kts 26°
2026-04-26 09:35 -9.93840 -36.20408 45012 ft 466 kts 26°
2026-04-26 09:35 -9.88102 -36.17534 45011 ft 466 kts 26°
2026-04-26 09:36 -9.82261 -36.14611 45012 ft 466 kts 26°
2026-04-26 09:36 -9.76605 -36.11781 45013 ft 466 kts 26°
2026-04-26 09:37 -9.70798 -36.08877 45014 ft 466 kts 26°
2026-04-26 09:37 -9.64974 -36.05965 45013 ft 467 kts 26°
2026-04-26 09:38 -9.60184 -36.03571 45013 ft 467 kts 26°
2026-04-26 09:38 -9.54333 -36.00647 45010 ft 467 kts 26°
2026-04-26 09:39 -9.48546 -35.97757 45006 ft 467 kts 26°
2026-04-26 09:39 -9.42707 -35.94842 45006 ft 467 kts 26°
2026-04-26 09:40 -9.36921 -35.91955 45007 ft 467 kts 26°
2026-04-26 09:40 -9.31099 -35.89050 45011 ft 467 kts 26°
2026-04-26 09:41 -9.25259 -35.86138 45018 ft 467 kts 26°
2026-04-26 09:41 -9.19397 -35.83216 45019 ft 466 kts 27°
2026-04-26 09:42 -9.13583 -35.80318 45025 ft 467 kts 27°
2026-04-26 09:42 -9.07779 -35.77428 45027 ft 466 kts 27°
2026-04-26 09:43 -9.01959 -35.74500 45021 ft 466 kts 29°
2026-04-26 09:43 -8.96487 -35.70847 45020 ft 466 kts 36°
2026-04-26 09:44 -8.91101 -35.67180 45028 ft 466 kts 33°
2026-04-26 09:44 -8.85745 -35.63583 45022 ft 466 kts 35°
2026-04-26 09:45 -8.80333 -35.59899 45017 ft 466 kts 34°
2026-04-26 09:45 -8.74939 -35.56270 45019 ft 466 kts 34°
2026-04-26 09:46 -8.69564 -35.52624 45021 ft 466 kts 34°
2026-04-26 09:46 -8.64183 -35.48997 45022 ft 466 kts 34°
2026-04-26 09:47 -8.58793 -35.45351 45021 ft 466 kts 34°
2026-04-26 09:47 -8.53409 -35.41720 45022 ft 466 kts 34°
2026-04-26 09:48 -8.48016 -35.38078 45018 ft 465 kts 34°
2026-04-26 09:48 -8.42642 -35.34453 45019 ft 465 kts 34°
2026-04-26 09:49 -8.37260 -35.30822 45016 ft 464 kts 34°
2026-04-26 09:49 -8.31923 -35.27224 45011 ft 463 kts 34°
2026-04-26 09:50 -8.26530 -35.23589 45006 ft 462 kts 34°
2026-04-26 09:50 -8.21143 -35.19959 44991 ft 462 kts 34°
2026-04-26 09:51 -8.15825 -35.16377 44990 ft 462 kts 34°
2026-04-26 09:51 -8.10475 -35.12775 44984 ft 461 kts 34°
2026-04-26 09:52 -8.05119 -35.09170 44980 ft 461 kts 34°
2026-04-26 09:52 -7.97239 -35.03868 44984 ft 460 kts 35°
2026-04-26 09:53 -7.91883 -35.00265 44982 ft 459 kts 35°
2026-04-26 09:53 -7.86609 -34.96719 44988 ft 459 kts 35°
2026-04-26 09:54 -7.81235 -34.93107 44991 ft 459 kts 35°
2026-04-26 09:54 -7.75922 -34.89537 45000 ft 458 kts 35°
2026-04-26 09:55 -7.70637 -34.85986 44998 ft 458 kts 35°
2026-04-26 09:55 -7.65342 -34.82430 44991 ft 457 kts 35°
2026-04-26 09:56 -7.60150 -34.78945 44990 ft 457 kts 35°
2026-04-26 09:56 -7.54775 -34.75337 44987 ft 457 kts 35°
2026-04-26 09:57 -7.49495 -34.71795 44985 ft 457 kts 35°
2026-04-26 09:57 -7.44194 -34.68239 44989 ft 457 kts 35°
2026-04-26 09:58 -7.38874 -34.64672 44983 ft 457 kts 35°
2026-04-26 09:58 -7.33578 -34.61122 44991 ft 457 kts 35°
2026-04-26 09:59 -7.29184 -34.58177 44990 ft 456 kts 35°
2026-04-26 09:59 -7.23882 -34.54624 44989 ft 457 kts 35°
2026-04-26 10:00 -7.18598 -34.51086 44990 ft 457 kts 35°
2026-04-26 10:00 -7.13299 -34.47537 44980 ft 457 kts 35°
2026-04-26 10:01 -7.08007 -34.43995 44979 ft 458 kts 35°
2026-04-26 10:01 -7.02703 -34.40444 44959 ft 459 kts 34°
2026-04-26 10:02 -6.97395 -34.36895 44974 ft 452 kts 35°
2026-04-26 10:02 -6.92143 -34.33380 44977 ft 457 kts 35°
2026-04-26 10:03 -6.86829 -34.29828 44976 ft 459 kts 35°
2026-04-26 10:03 -6.81511 -34.26272 44980 ft 457 kts 35°
2026-04-26 10:04 -6.76215 -34.22732 44981 ft 458 kts 35°
2026-04-26 10:04 -6.70919 -34.19195 44977 ft 458 kts 35°
2026-04-26 10:05 -6.65625 -34.15658 44977 ft 458 kts 35°
2026-04-26 10:05 -6.60251 -34.12069 44970 ft 458 kts 35°
2026-04-26 10:06 -6.54959 -34.08536 44972 ft 456 kts 35°
2026-04-26 10:06 -6.49696 -34.05024 44974 ft 454 kts 35°
2026-04-26 10:07 -6.44444 -34.01519 44971 ft 453 kts 35°
2026-04-26 10:07 -6.39418 -33.98166 44968 ft 450 kts 35°
2026-04-26 10:08 -6.34243 -33.94715 44973 ft 449 kts 35°
2026-04-26 10:08 -6.29043 -33.91248 44975 ft 447 kts 35°
2026-04-26 10:09 -6.23869 -33.87799 44972 ft 447 kts 35°
2026-04-26 10:09 -6.18678 -33.84339 44973 ft 447 kts 35°
2026-04-26 10:10 -6.13448 -33.80854 44973 ft 447 kts 34°
2026-04-26 10:10 -6.08287 -33.77417 44970 ft 447 kts 34°
2026-04-26 10:11 -6.03114 -33.73971 44976 ft 447 kts 34°
2026-04-26 10:11 -5.97935 -33.70523 44969 ft 446 kts 34°
2026-04-26 10:12 -5.92747 -33.67069 44966 ft 447 kts 34°
2026-04-26 10:12 -5.87539 -33.63604 44967 ft 447 kts 34°
2026-04-26 10:13 -5.82364 -33.60160 44969 ft 446 kts 34°
2026-04-26 10:13 -5.77182 -33.56712 44969 ft 446 kts 34°
2026-04-26 10:14 -5.72000 -33.53266 44969 ft 446 kts 34°
2026-04-26 10:14 -5.66859 -33.49848 44964 ft 447 kts 34°
2026-04-26 10:15 -5.61674 -33.46401 44966 ft 447 kts 34°
2026-04-26 10:15 -5.56490 -33.42956 44965 ft 447 kts 34°
2026-04-26 10:16 -5.51302 -33.39508 44966 ft 447 kts 34°
2026-04-26 10:16 -5.46087 -33.36044 44964 ft 447 kts 34°
2026-04-26 10:17 -5.40907 -33.32603 44966 ft 447 kts 34°
2026-04-26 10:17 -5.35432 -33.29711 44968 ft 448 kts 27°
2026-04-26 10:18 -5.29836 -33.26990 44973 ft 448 kts 28°
2026-04-26 10:18 -5.24200 -33.24195 44972 ft 447 kts 27°
2026-04-26 10:19 -5.18744 -33.21529 44972 ft 447 kts 27°
2026-04-26 10:19 -5.13692 -33.19034 44962 ft 446 kts 27°
2026-04-26 10:20 -5.08948 -33.16710 44967 ft 445 kts 27°
2026-04-26 10:20 -5.02457 -33.13517 44968 ft 445 kts 27°
2026-04-26 10:21 -4.96898 -33.10789 44971 ft 443 kts 28°
2026-04-26 10:21 -4.91360 -33.08067 44972 ft 443 kts 27°
2026-04-26 10:22 -4.85814 -33.05344 44972 ft 445 kts 27°
2026-04-26 10:22 -4.80250 -33.02612 44969 ft 445 kts 27°
2026-04-26 10:23 -4.74704 -32.99890 44970 ft 445 kts 27°
2026-04-26 10:23 -4.69128 -32.97154 44970 ft 446 kts 27°
2026-04-26 10:24 -4.63565 -32.94424 44967 ft 446 kts 27°
2026-04-26 10:24 -4.57989 -32.91688 44964 ft 447 kts 27°
2026-04-26 10:25 -4.52386 -32.88940 44965 ft 448 kts 27°
2026-04-26 10:25 -4.46788 -32.86194 44962 ft 448 kts 27°
2026-04-26 10:26 -4.41195 -32.83451 44963 ft 449 kts 27°
2026-04-26 10:26 -4.36531 -32.81165 44962 ft 449 kts 27°
2026-04-26 10:27 -4.30915 -32.78412 44962 ft 449 kts 27°
2026-04-26 10:27 -4.25268 -32.75644 44960 ft 450 kts 27°
2026-04-26 10:28 -4.19630 -32.72881 44958 ft 452 kts 27°
2026-04-26 10:28 -4.13979 -32.70113 44957 ft 453 kts 27°
2026-04-26 10:29 -4.08279 -32.67320 44960 ft 454 kts 27°
2026-04-26 10:29 -4.02611 -32.64544 44960 ft 455 kts 27°
2026-04-26 10:30 -3.96917 -32.61756 44956 ft 456 kts 27°
2026-04-26 10:30 -3.91233 -32.58972 44963 ft 457 kts 27°
2026-04-26 10:31 -3.85486 -32.56159 44967 ft 457 kts 27°
2026-04-26 10:31 -3.79870 -32.53409 44962 ft 458 kts 27°
2026-04-26 10:32 -3.74090 -32.50581 44963 ft 459 kts 27°
2026-04-26 10:32 -3.68272 -32.47734 44963 ft 459 kts 27°
2026-04-26 10:33 -3.62575 -32.44946 44962 ft 460 kts 27°
2026-04-26 10:33 -3.56778 -32.42110 44959 ft 460 kts 27°
2026-04-26 10:34 -3.51024 -32.39295 44961 ft 460 kts 27°
2026-04-26 10:34 -3.45261 -32.36477 44959 ft 460 kts 27°
2026-04-26 10:35 -3.39508 -32.33664 44959 ft 461 kts 27°
2026-04-26 10:35 -3.33742 -32.30844 44961 ft 461 kts 27°
2026-04-26 10:36 -3.27944 -32.28010 44960 ft 462 kts 27°
2026-04-26 10:36 -3.22156 -32.25180 44961 ft 462 kts 27°
2026-04-26 10:37 -3.16354 -32.22345 44964 ft 463 kts 27°
2026-04-26 10:37 -3.10529 -32.19498 44968 ft 464 kts 27°
2026-04-26 10:38 -3.04715 -32.16657 44970 ft 465 kts 27°
2026-04-26 10:38 -2.98900 -32.13816 44971 ft 466 kts 27°
2026-04-26 10:39 -2.93066 -32.10966 44968 ft 467 kts 27°
2026-04-26 10:39 -2.87227 -32.08113 44966 ft 467 kts 27°
2026-04-26 10:40 -2.81392 -32.05263 44968 ft 467 kts 27°
2026-04-26 10:40 -2.75561 -32.02416 44970 ft 467 kts 27°
2026-04-26 10:41 -2.69667 -31.99538 44970 ft 467 kts 27°
2026-04-26 10:41 -2.63835 -31.96691 44973 ft 467 kts 27°
2026-04-26 10:42 -2.58029 -31.93856 44969 ft 468 kts 27°
2026-04-26 10:42 -2.52132 -31.90977 44975 ft 468 kts 27°
2026-04-26 10:43 -2.46273 -31.88118 44969 ft 468 kts 27°
2026-04-26 10:43 -2.40442 -31.85272 44971 ft 468 kts 27°
2026-04-26 10:44 -2.34571 -31.82407 44975 ft 467 kts 27°
2026-04-26 10:44 -2.28729 -31.79556 44974 ft 468 kts 27°
2026-04-26 10:45 -2.22877 -31.76701 44976 ft 468 kts 27°
2026-04-26 10:45 -2.17038 -31.73852 44974 ft 467 kts 27°
2026-04-26 10:46 -2.11176 -31.70992 44971 ft 468 kts 27°
2026-04-26 10:46 -2.05320 -31.68136 44973 ft 470 kts 27°
2026-04-26 10:47 -1.99434 -31.65265 44972 ft 471 kts 27°
2026-04-26 10:47 -1.93579 -31.62409 44975 ft 472 kts 27°
2026-04-26 10:48 -1.87759 -31.59572 44969 ft 473 kts 27°
2026-04-26 10:48 -1.82570 -31.57041 44967 ft 474 kts 27°
2026-04-26 10:49 -1.77633 -31.54633 44969 ft 475 kts 27°
2026-04-26 10:49 -1.71657 -31.51720 44964 ft 475 kts 27°
2026-04-26 10:50 -1.65715 -31.48823 44968 ft 475 kts 27°
2026-04-26 10:50 -1.59771 -31.45925 44972 ft 476 kts 27°
2026-04-26 10:51 -1.50886 -31.41594 44970 ft 476 kts 27°
2026-04-26 10:52 -1.44906 -31.38679 44968 ft 476 kts 27°
2026-04-26 10:52 -1.38951 -31.35777 44971 ft 476 kts 27°
2026-04-26 10:53 -1.32972 -31.32862 44971 ft 476 kts 27°
2026-04-26 10:53 -1.27063 -31.29983 44973 ft 476 kts 27°
2026-04-26 10:54 -1.18100 -31.25615 44967 ft 476 kts 27°
2026-04-26 10:54 -1.12155 -31.22718 44979 ft 476 kts 27°
2026-04-26 10:55 -1.06192 -31.19813 44974 ft 477 kts 27°
2026-04-26 10:55 -1.00305 -31.16944 44977 ft 477 kts 27°
2026-04-26 10:56 -0.94223 -31.13981 44974 ft 477 kts 27°
2026-04-26 10:56 -0.88265 -31.11078 44981 ft 478 kts 27°
2026-04-26 10:57 -0.82254 -31.08228 44963 ft 478 kts 23°
2026-04-26 10:57 -0.76022 -31.05879 44973 ft 479 kts 21°
2026-04-26 10:58 -0.69799 -31.03476 44978 ft 479 kts 23°
2026-04-26 10:58 -0.63582 -31.01095 44980 ft 478 kts 22°
2026-04-26 10:59 -0.57368 -30.98715 44980 ft 478 kts 22°
2026-04-26 10:59 -0.51157 -30.96329 44983 ft 478 kts 22°
2026-04-26 11:00 -0.44918 -30.93941 44986 ft 478 kts 22°
2026-04-26 11:00 -0.38779 -30.91584 44982 ft 478 kts 22°
2026-04-26 11:01 -0.32557 -30.89200 44988 ft 478 kts 22°
2026-04-26 11:01 -0.26403 -30.86840 44996 ft 477 kts 22°
2026-04-26 11:02 -0.20191 -30.84458 44975 ft 475 kts 22°
2026-04-26 11:02 -0.13947 -30.82064 44982 ft 480 kts 22°
2026-04-26 11:03 -0.07711 -30.79673 44983 ft 480 kts 22°
2026-04-26 11:03 -0.01515 -30.77297 44987 ft 479 kts 22°
2026-04-26 11:04 0.04625 -30.74948 44975 ft 459 kts 24°
2026-04-26 11:04 0.10507 -30.72688 44964 ft 447 kts 24°
2026-04-26 11:05 0.16317 -30.70459 44968 ft 455 kts 24°
2026-04-26 11:05 0.22293 -30.68169 44985 ft 461 kts 24°
2026-04-26 11:06 0.27272 -30.66260 44977 ft 461 kts 24°
2026-04-26 11:06 0.34276 -30.63574 44975 ft 461 kts 24°
2026-04-26 11:07 0.40276 -30.61274 44978 ft 462 kts 24°
2026-04-26 11:07 0.46270 -30.58976 44979 ft 463 kts 24°
2026-04-26 11:08 0.52322 -30.56655 44982 ft 465 kts 24°
2026-04-26 11:08 0.58369 -30.54336 44982 ft 466 kts 24°
2026-04-26 11:09 0.64467 -30.51998 44985 ft 467 kts 24°
2026-04-26 11:09 0.70557 -30.49663 44982 ft 469 kts 24°
2026-04-26 11:10 0.76609 -30.47342 44984 ft 470 kts 24°
2026-04-26 11:10 0.82531 -30.45071 44983 ft 470 kts 24°
2026-04-26 11:11 0.88655 -30.42722 44987 ft 472 kts 24°
2026-04-26 11:11 0.93756 -30.40766 44988 ft 472 kts 24°
2026-04-26 11:12 0.99893 -30.38412 44984 ft 473 kts 24°
2026-04-26 11:12 1.06018 -30.36063 44985 ft 474 kts 24°
2026-04-26 11:13 1.12226 -30.33682 44987 ft 475 kts 24°
2026-04-26 11:13 1.18433 -30.31301 44981 ft 475 kts 24°
2026-04-26 11:14 1.24488 -30.28978 44982 ft 475 kts 24°
2026-04-26 11:14 1.30770 -30.26568 44979 ft 475 kts 24°
2026-04-26 11:15 1.36952 -30.24197 44982 ft 475 kts 24°
2026-04-26 11:15 1.43126 -30.21828 44978 ft 475 kts 24°
2026-04-26 11:16 1.49296 -30.19461 44976 ft 475 kts 24°
2026-04-26 11:16 1.55490 -30.17084 44977 ft 476 kts 24°
2026-04-26 11:17 1.61689 -30.14705 44974 ft 477 kts 24°
2026-04-26 11:17 1.67876 -30.12331 44973 ft 478 kts 24°
2026-04-26 11:18 1.74093 -30.09945 44973 ft 478 kts 24°
2026-04-26 11:18 1.80311 -30.07559 44970 ft 479 kts 24°
2026-04-26 11:19 1.86508 -30.05180 44972 ft 480 kts 24°
2026-04-26 11:19 1.92796 -30.02766 44972 ft 480 kts 24°
2026-04-26 11:20 1.97976 -30.00778 44971 ft 480 kts 24°
2026-04-26 11:20 2.04955 -29.97612 44966 ft 478 kts 30°
2026-04-26 11:21 2.10897 -29.94681 44969 ft 479 kts 28°
2026-04-26 11:21 2.16901 -29.91793 44976 ft 479 kts 29°
2026-04-26 11:22 2.22920 -29.88841 44975 ft 480 kts 29°
2026-04-26 11:22 2.28923 -29.85935 44975 ft 479 kts 29°
2026-04-26 11:23 2.34959 -29.82987 44972 ft 480 kts 29°
2026-04-26 11:23 2.40930 -29.80088 44972 ft 480 kts 29°
2026-04-26 11:24 2.46930 -29.77163 44967 ft 480 kts 29°
2026-04-26 11:24 2.52934 -29.74243 44970 ft 480 kts 29°
2026-04-26 11:25 2.58947 -29.71314 44968 ft 480 kts 29°
2026-04-26 11:25 2.64960 -29.68387 44975 ft 480 kts 29°
2026-04-26 11:26 2.70981 -29.65454 44973 ft 480 kts 29°
2026-04-26 11:26 2.76984 -29.62531 44969 ft 480 kts 29°
2026-04-26 11:27 2.82993 -29.59604 44966 ft 480 kts 29°
2026-04-26 11:27 2.89003 -29.56677 44968 ft 480 kts 29°
2026-04-26 11:28 2.95005 -29.53753 44965 ft 480 kts 29°
2026-04-26 11:28 3.01026 -29.50819 44969 ft 480 kts 29°
2026-04-26 11:29 3.07034 -29.47891 44966 ft 480 kts 29°
2026-04-26 11:29 3.13051 -29.44959 44967 ft 480 kts 29°
2026-04-26 11:30 3.18036 -29.42529 44965 ft 480 kts 29°
2026-04-26 11:30 3.25063 -29.39103 44967 ft 480 kts 29°
2026-04-26 11:31 3.31085 -29.36167 44968 ft 480 kts 29°
2026-04-26 11:31 3.37060 -29.33254 44968 ft 480 kts 29°
2026-04-26 11:32 3.43064 -29.30326 44969 ft 479 kts 29°
2026-04-26 11:32 3.49099 -29.27382 44966 ft 479 kts 29°
2026-04-26 11:33 3.55092 -29.24459 44967 ft 479 kts 29°
2026-04-26 11:33 3.60490 -29.21825 44965 ft 479 kts 29°
2026-04-26 11:34 3.66470 -29.18907 44969 ft 478 kts 28°
2026-04-26 11:34 3.72450 -29.15988 44968 ft 478 kts 28°
2026-04-26 11:35 3.78438 -29.13065 44971 ft 477 kts 28°
2026-04-26 11:35 3.83394 -29.10646 44969 ft 477 kts 28°
2026-04-26 11:36 3.90383 -29.07234 44977 ft 476 kts 28°
2026-04-26 11:36 3.96336 -29.04327 44972 ft 476 kts 28°
2026-04-26 11:37 4.02298 -29.01415 44973 ft 476 kts 28°
2026-04-26 11:37 4.08230 -28.98517 44971 ft 475 kts 28°
2026-04-26 11:38 4.14173 -28.95613 44971 ft 474 kts 28°
2026-04-26 11:38 4.20113 -28.92711 44971 ft 474 kts 28°
2026-04-26 11:39 4.25071 -28.90287 44970 ft 473 kts 28°
2026-04-26 11:39 4.30961 -28.87408 44967 ft 473 kts 28°
2026-04-26 11:40 4.36945 -28.84483 44967 ft 472 kts 28°
2026-04-26 11:40 4.42835 -28.81602 44973 ft 472 kts 27°
2026-04-26 11:42 4.66403 -28.70073 44972 ft 471 kts 27°
2026-04-26 11:43 4.72291 -28.67191 44974 ft 470 kts 27°
2026-04-26 11:43 4.78170 -28.64313 44974 ft 470 kts 28°
2026-04-26 11:44 4.84047 -28.61435 44974 ft 470 kts 27°
2026-04-26 11:44 4.89970 -28.58535 44975 ft 470 kts 27°
2026-04-26 11:45 4.95832 -28.55663 44972 ft 470 kts 28°
2026-04-26 11:45 5.01719 -28.52779 44971 ft 469 kts 27°
2026-04-26 11:46 5.07585 -28.49905 44974 ft 469 kts 27°
2026-04-26 11:46 5.13440 -28.47036 44976 ft 469 kts 27°
2026-04-26 11:47 5.19309 -28.44159 44974 ft 468 kts 27°
2026-04-26 11:47 5.25161 -28.41289 44980 ft 468 kts 27°
2026-04-26 11:48 5.31015 -28.38418 44979 ft 468 kts 27°
2026-04-26 11:48 5.36885 -28.35539 44976 ft 468 kts 27°
2026-04-26 11:49 5.42732 -28.32670 44977 ft 468 kts 27°
2026-04-26 11:49 5.48585 -28.29798 44978 ft 468 kts 27°
2026-04-26 11:50 5.54433 -28.26927 44980 ft 467 kts 27°
2026-04-26 11:50 5.60285 -28.24055 44976 ft 468 kts 27°
2026-04-26 11:51 5.66126 -28.21186 44978 ft 467 kts 27°
2026-04-26 11:51 5.71976 -28.18314 44980 ft 467 kts 27°
2026-04-26 11:52 5.76827 -28.15929 44978 ft 467 kts 27°
2026-04-26 11:52 5.83649 -28.12578 44980 ft 467 kts 27°
2026-04-26 11:53 5.89491 -28.09706 44980 ft 466 kts 27°
2026-04-26 11:54 5.98275 -28.05388 44979 ft 467 kts 27°
2026-04-26 11:54 6.04157 -28.02495 44975 ft 466 kts 27°
2026-04-26 11:55 6.09993 -27.99623 44976 ft 467 kts 27°
2026-04-26 11:55 6.15827 -27.96753 44977 ft 467 kts 27°
2026-04-26 11:56 6.21444 -27.93989 44978 ft 467 kts 27°
2026-04-26 11:56 6.27309 -27.91102 44976 ft 467 kts 27°
2026-04-26 11:57 6.33146 -27.88227 44979 ft 466 kts 27°
2026-04-26 11:57 6.38989 -27.85349 44982 ft 467 kts 27°
2026-04-26 11:58 6.44830 -27.82472 44979 ft 467 kts 27°
2026-04-26 11:58 6.50629 -27.79614 44981 ft 467 kts 27°
2026-04-26 11:59 6.56470 -27.76735 44980 ft 467 kts 27°
2026-04-26 11:59 6.62254 -27.73883 44980 ft 467 kts 27°
2026-04-26 12:00 6.68133 -27.70984 44979 ft 467 kts 27°
2026-04-26 12:00 6.73015 -27.68576 44978 ft 466 kts 27°
2026-04-26 12:01 6.78849 -27.65697 44978 ft 467 kts 27°
2026-04-26 12:01 6.84683 -27.62818 44981 ft 467 kts 27°
2026-04-26 12:02 6.90552 -27.60106 44981 ft 467 kts 25°
2026-04-26 12:02 6.96483 -27.57382 44984 ft 467 kts 25°
2026-04-26 12:03 7.02406 -27.54693 44987 ft 466 kts 25°
2026-04-26 12:03 7.08222 -27.52035 44984 ft 467 kts 25°
2026-04-26 12:04 7.14208 -27.49306 44980 ft 467 kts 25°
2026-04-26 12:04 7.20159 -27.46589 44978 ft 467 kts 25°
2026-04-26 12:05 7.26082 -27.43886 44984 ft 467 kts 25°
2026-04-26 12:05 7.31999 -27.41184 44983 ft 466 kts 25°
2026-04-26 12:06 7.37952 -27.38465 44987 ft 467 kts 25°
2026-04-26 12:06 7.43889 -27.35753 44988 ft 467 kts 25°
2026-04-26 12:07 7.49652 -27.33119 44989 ft 466 kts 24°
2026-04-26 12:07 7.55422 -27.30481 44986 ft 467 kts 24°
2026-04-26 12:08 7.61439 -27.27729 44988 ft 468 kts 24°
2026-04-26 12:08 7.66124 -27.25587 44992 ft 468 kts 24°
2026-04-26 12:09 7.72035 -27.22882 44991 ft 467 kts 24°
2026-04-26 12:09 7.77923 -27.20187 44992 ft 468 kts 24°
2026-04-26 12:10 7.83910 -27.17446 44994 ft 468 kts 24°
2026-04-26 12:10 7.89828 -27.14736 44993 ft 467 kts 24°
2026-04-26 12:11 7.95764 -27.12016 44996 ft 468 kts 24°
2026-04-26 12:11 8.01701 -27.09296 44995 ft 468 kts 24°
2026-04-26 12:12 8.07628 -27.06579 44996 ft 468 kts 24°
2026-04-26 12:12 8.13567 -27.03856 44997 ft 469 kts 24°
2026-04-26 12:13 8.19375 -27.01191 44995 ft 469 kts 24°
2026-04-26 12:13 8.25303 -26.98471 44998 ft 469 kts 24°
2026-04-26 12:14 8.30273 -26.96190 44995 ft 469 kts 24°
2026-04-26 12:14 8.36188 -26.93474 44995 ft 469 kts 24°
2026-04-26 12:15 8.42134 -26.90743 44996 ft 470 kts 24°
2026-04-26 12:15 8.48087 -26.88009 44995 ft 470 kts 24°
2026-04-26 12:16 8.54075 -26.85256 44993 ft 471 kts 24°
2026-04-26 12:16 8.60076 -26.82497 44996 ft 472 kts 24°
2026-04-26 12:17 8.66142 -26.79707 44995 ft 472 kts 24°
2026-04-26 12:17 8.72149 -26.76944 44995 ft 472 kts 24°
2026-04-26 12:18 8.78142 -26.74185 44993 ft 474 kts 24°
2026-04-26 12:18 8.84138 -26.71425 44997 ft 474 kts 24°
2026-04-26 12:19 8.90161 -26.68651 44990 ft 474 kts 24°
2026-04-26 12:19 8.96164 -26.65885 44994 ft 475 kts 24°
2026-04-26 12:20 9.02243 -26.63083 44995 ft 475 kts 24°
2026-04-26 12:20 9.08268 -26.60305 44997 ft 475 kts 23°
2026-04-26 12:21 9.14323 -26.57512 44995 ft 475 kts 23°
2026-04-26 12:21 9.20331 -26.54739 44995 ft 475 kts 23°
2026-04-26 12:22 9.26344 -26.51964 44996 ft 474 kts 23°
2026-04-26 12:22 9.32243 -26.49241 44993 ft 475 kts 23°
2026-04-26 12:23 9.38255 -26.46463 44998 ft 476 kts 23°
2026-04-26 12:23 9.44199 -26.43717 45002 ft 486 kts 23°
2026-04-26 12:24 9.50368 -26.40864 44999 ft 486 kts 23°
2026-04-26 12:24 9.56523 -26.38018 44998 ft 488 kts 23°
2026-04-26 12:25 9.65913 -26.33672 44998 ft 501 kts 23°
2026-04-26 12:25 9.72292 -26.30720 45001 ft 507 kts 23°
2026-04-26 12:26 9.78734 -26.27736 45003 ft 511 kts 23°
2026-04-26 12:26 9.85213 -26.24734 44995 ft 513 kts 23°
2026-04-26 12:27 9.91715 -26.21719 44997 ft 514 kts 23°
2026-04-26 12:27 9.98241 -26.18693 44995 ft 516 kts 22°
2026-04-26 12:28 10.04735 -26.15680 44999 ft 517 kts 22°
2026-04-26 12:28 10.11389 -26.12592 45000 ft 519 kts 22°
2026-04-26 12:29 10.16530 -26.10204 45002 ft 519 kts 22°
2026-04-26 12:30 10.26391 -26.05623 45002 ft 520 kts 22°
2026-04-26 12:30 10.33018 -26.02542 45000 ft 520 kts 22°
2026-04-26 12:31 10.42943 -25.97925 44999 ft 521 kts 22°
2026-04-26 12:31 10.49526 -25.94862 45001 ft 521 kts 22°
2026-04-26 12:32 10.56114 -25.91794 45001 ft 522 kts 22°
2026-04-26 12:33 10.66019 -25.87179 45007 ft 522 kts 22°
2026-04-26 12:33 10.72462 -25.84175 45003 ft 522 kts 22°
2026-04-26 12:34 10.79115 -25.81073 44997 ft 523 kts 22°
2026-04-26 12:34 10.85752 -25.77975 45003 ft 524 kts 22°
2026-04-26 12:35 10.92369 -25.74884 44992 ft 510 kts 22°
2026-04-26 12:35 10.98779 -25.71893 44987 ft 509 kts 22°
2026-04-26 12:36 11.05221 -25.68882 44992 ft 514 kts 22°
2026-04-26 12:36 11.11744 -25.65832 45001 ft 515 kts 22°
2026-04-26 12:37 11.18271 -25.62778 45007 ft 514 kts 22°
2026-04-26 12:37 11.24724 -25.59759 45003 ft 514 kts 22°
2026-04-26 12:38 11.31222 -25.56716 45001 ft 513 kts 22°
2026-04-26 12:38 11.37719 -25.53672 45001 ft 513 kts 22°
2026-04-26 12:39 11.44258 -25.50607 45001 ft 513 kts 22°
2026-04-26 12:39 11.50660 -25.47605 45001 ft 513 kts 22°
2026-04-26 12:40 11.57218 -25.44528 45004 ft 513 kts 22°
2026-04-26 12:40 11.63760 -25.41457 45005 ft 512 kts 22°
2026-04-26 12:41 11.70182 -25.38441 45004 ft 512 kts 22°
2026-04-26 12:41 11.74475 -25.36424 45008 ft 512 kts 22°
2026-04-26 12:42 11.80939 -25.33385 45004 ft 512 kts 22°
2026-04-26 12:42 11.87289 -25.30399 45003 ft 513 kts 22°
2026-04-26 12:43 11.92741 -25.27834 45008 ft 513 kts 22°
2026-04-26 12:43 11.99290 -25.24750 45012 ft 512 kts 22°
2026-04-26 12:44 12.05772 -25.21697 45008 ft 512 kts 22°
2026-04-26 12:44 12.12240 -25.18648 45009 ft 512 kts 22°
2026-04-26 12:45 12.18694 -25.15605 45008 ft 512 kts 22°
2026-04-26 12:45 12.25211 -25.12531 45005 ft 512 kts 22°
2026-04-26 12:46 12.31666 -25.09484 45009 ft 512 kts 22°
2026-04-26 12:46 12.38182 -25.06406 45011 ft 512 kts 22°
2026-04-26 12:47 12.44599 -25.03374 45013 ft 512 kts 22°
2026-04-26 12:47 12.51145 -25.00279 45013 ft 511 kts 22°
2026-04-26 12:48 12.57625 -24.97213 45016 ft 511 kts 22°
2026-04-26 12:48 12.64040 -24.94177 45016 ft 512 kts 22°
2026-04-26 12:49 12.70462 -24.91135 45016 ft 512 kts 22°
2026-04-26 12:49 12.76892 -24.88088 45015 ft 512 kts 22°
2026-04-26 12:50 12.83192 -24.85101 45012 ft 512 kts 22°
2026-04-26 12:50 12.89651 -24.82037 45013 ft 511 kts 22°
2026-04-26 12:51 12.96040 -24.79004 45014 ft 511 kts 22°
2026-04-26 12:51 13.02547 -24.75913 45017 ft 512 kts 22°
2026-04-26 12:52 13.09007 -24.72844 45017 ft 512 kts 21°
2026-04-26 12:52 13.15464 -24.69773 45020 ft 512 kts 21°
2026-04-26 12:53 13.21824 -24.66747 45016 ft 512 kts 21°
2026-04-26 12:53 13.28287 -24.63671 45016 ft 512 kts 21°
2026-04-26 12:54 13.34819 -24.60559 45013 ft 512 kts 21°
2026-04-26 12:54 13.41337 -24.57453 45017 ft 512 kts 21°
2026-04-26 12:55 13.47781 -24.54379 45013 ft 512 kts 21°
2026-04-26 12:55 13.54246 -24.51294 45014 ft 511 kts 21°
2026-04-26 12:56 13.60665 -24.48229 45013 ft 511 kts 21°
2026-04-26 12:56 13.66930 -24.45236 45014 ft 511 kts 21°
2026-04-26 12:57 13.72602 -24.42525 45017 ft 511 kts 21°
2026-04-26 12:57 13.79060 -24.39436 45026 ft 510 kts 21°
2026-04-26 12:58 13.88716 -24.34814 45019 ft 510 kts 21°
2026-04-26 12:58 13.94980 -24.31235 45018 ft 513 kts 27°
2026-04-26 12:59 14.01136 -24.27520 45026 ft 512 kts 26°
2026-04-26 12:59 14.07365 -24.23841 45028 ft 513 kts 27°
2026-04-26 13:00 14.13520 -24.20136 45021 ft 513 kts 26°
2026-04-26 13:00 14.19254 -24.16733 45023 ft 513 kts 26°
2026-04-26 13:01 14.25424 -24.13029 45023 ft 513 kts 26°
2026-04-26 13:01 14.31548 -24.09376 45019 ft 513 kts 26°
2026-04-26 13:02 14.37724 -24.05674 45018 ft 513 kts 26°
2026-04-26 13:02 14.43858 -24.02002 45014 ft 513 kts 26°
2026-04-26 13:03 14.50052 -23.98286 44348 ft 503 kts 26°
2026-04-26 13:03 14.53030 -23.96499 43716 ft 490 kts 26°
2026-04-26 13:03 14.55955 -23.94745 43072 ft 480 kts 26°
2026-04-26 13:04 14.58806 -23.93036 42450 ft 462 kts 26°
2026-04-26 13:04 14.61562 -23.91380 41846 ft 456 kts 26°
2026-04-26 13:04 14.64306 -23.89736 41253 ft 454 kts 26°
2026-04-26 13:04 14.66924 -23.88167 40686 ft 456 kts 26°
2026-04-26 13:05 14.69730 -23.86482 40079 ft 462 kts 26°
2026-04-26 13:05 14.72566 -23.84778 39466 ft 469 kts 26°
2026-04-26 13:05 14.75317 -23.83124 38858 ft 474 kts 26°
2026-04-26 13:05 14.78214 -23.81380 38168 ft 476 kts 26°
2026-04-26 13:06 14.81066 -23.79664 37540 ft 475 kts 26°
2026-04-26 13:06 14.83924 -23.77945 36919 ft 475 kts 26°
2026-04-26 13:06 14.85817 -23.76807 36507 ft 475 kts 26°
2026-04-26 13:06 14.87760 -23.75638 36079 ft 476 kts 26°
2026-04-26 13:07 14.90617 -23.73916 35448 ft 475 kts 26°
2026-04-26 13:07 14.93308 -23.72296 34856 ft 476 kts 26°
2026-04-26 13:07 14.95209 -23.71151 34437 ft 477 kts 26°
2026-04-26 13:07 14.98708 -23.69043 33631 ft 477 kts 26°
2026-04-26 13:08 15.01571 -23.67316 33004 ft 476 kts 26°
2026-04-26 13:08 15.04447 -23.65582 32373 ft 477 kts 26°
2026-04-26 13:08 15.07312 -23.63855 31745 ft 477 kts 26°
2026-04-26 13:08 15.10202 -23.62111 31111 ft 477 kts 26°
2026-04-26 13:09 15.13022 -23.60409 30485 ft 476 kts 25°
2026-04-26 13:09 15.15193 -23.59097 29999 ft 473 kts 25°
2026-04-26 13:09 15.18023 -23.57387 29349 ft 466 kts 25°
2026-04-26 13:09 15.20825 -23.55694 28730 ft 461 kts 25°
2026-04-26 13:10 15.23551 -23.54050 28133 ft 458 kts 25°
2026-04-26 13:10 15.26296 -23.52391 27534 ft 455 kts 26°
2026-04-26 13:10 15.29057 -23.50720 26933 ft 451 kts 26°
2026-04-26 13:10 15.31753 -23.49090 26338 ft 448 kts 26°
2026-04-26 13:11 15.34440 -23.47465 25754 ft 444 kts 26°
2026-04-26 13:11 15.37072 -23.45872 25179 ft 440 kts 26°
2026-04-26 13:11 15.39707 -23.44277 24607 ft 436 kts 26°
2026-04-26 13:11 15.42317 -23.42697 24033 ft 432 kts 26°
2026-04-26 13:12 15.44938 -23.41110 23428 ft 429 kts 26°
2026-04-26 13:12 15.47427 -23.39601 22859 ft 425 kts 26°
2026-04-26 13:12 15.50000 -23.38042 22294 ft 423 kts 26°
2026-04-26 13:12 15.52528 -23.36510 21739 ft 422 kts 26°
2026-04-26 13:13 15.55069 -23.34969 21192 ft 419 kts 27°
2026-04-26 13:13 15.57616 -23.33424 20628 ft 418 kts 27°
2026-04-26 13:13 15.60152 -23.32017 20051 ft 412 kts 20°
2026-04-26 13:13 15.61906 -23.31247 19720 ft 411 kts 19°
2026-04-26 13:14 15.64649 -23.30078 19160 ft 409 kts 19°
2026-04-26 13:14 15.67269 -23.28931 18620 ft 408 kts 20°
2026-04-26 13:14 15.69602 -23.27884 18113 ft 407 kts 20°
2026-04-26 13:14 15.72014 -23.26812 17602 ft 402 kts 20°
2026-04-26 13:15 15.74396 -23.25771 17104 ft 399 kts 19°
2026-04-26 13:15 15.76953 -23.24653 16581 ft 396 kts 20°
2026-04-26 13:15 15.79486 -23.23533 16056 ft 394 kts 20°
2026-04-26 13:15 15.81145 -23.22798 15716 ft 391 kts 20°
2026-04-26 13:16 15.84494 -23.21321 15031 ft 388 kts 20°
2026-04-26 13:16 15.86862 -23.20279 14544 ft 385 kts 20°
2026-04-26 13:16 15.89382 -23.19166 14022 ft 382 kts 20°
2026-04-26 13:16 15.91825 -23.18087 13487 ft 379 kts 20°
2026-04-26 13:17 15.96663 -23.15952 12488 ft 377 kts 20°
2026-04-26 13:17 15.99068 -23.14889 11991 ft 375 kts 20°
2026-04-26 13:18 16.03801 -23.12796 11007 ft 354 kts 20°
2026-04-26 13:18 16.06003 -23.11819 10558 ft 336 kts 20°
2026-04-26 13:18 16.10119 -23.10002 9684 ft 310 kts 19°
2026-04-26 13:19 16.12082 -23.09135 9273 ft 304 kts 19°
2026-04-26 13:19 16.14005 -23.08285 8881 ft 301 kts 19°
2026-04-26 13:19 16.15928 -23.07434 8490 ft 299 kts 19°
2026-04-26 13:19 16.17844 -23.06586 8097 ft 298 kts 19°
2026-04-26 13:20 16.19736 -23.05748 7708 ft 296 kts 19°
2026-04-26 13:20 16.21615 -23.04917 7310 ft 294 kts 19°
2026-04-26 13:20 16.23495 -23.04084 6927 ft 291 kts 19°
2026-04-26 13:20 16.25352 -23.03261 6542 ft 289 kts 19°
2026-04-26 13:21 16.27188 -23.02448 6151 ft 286 kts 20°
2026-04-26 13:21 16.28382 -23.01918 5889 ft 284 kts 19°
2026-04-26 13:21 16.30810 -23.00843 5336 ft 280 kts 20°
2026-04-26 13:21 16.32594 -23.00052 4972 ft 276 kts 20°
2026-04-26 13:22 16.33782 -22.99524 4727 ft 274 kts 20°
2026-04-26 13:22 16.35586 -22.98724 4338 ft 267 kts 20°
2026-04-26 13:22 16.37320 -22.97955 3978 ft 258 kts 21°
2026-04-26 13:22 16.38961 -22.97228 3636 ft 252 kts 22°
2026-04-26 13:23 16.40526 -22.96534 3313 ft 247 kts 23°
2026-04-26 13:23 16.42100 -22.95835 2965 ft 235 kts 23°
2026-04-26 13:23 16.43569 -22.95183 2663 ft 220 kts 23°
2026-04-26 13:23 16.44457 -22.94815 2477 ft 217 kts 20°
2026-04-26 13:24 16.45438 -22.94686 2444 ft 217 kts
2026-04-26 13:24 16.46982 -22.94725 2495 ft 226 kts
2026-04-26 13:24 16.47507 -22.94729 2496 ft 225 kts
2026-04-26 13:24 16.48479 -22.94729 2493 ft 223 kts
2026-04-26 13:25 16.49996 -22.94731 2488 ft 215 kts
2026-04-26 13:25 16.51445 -22.94741 2488 ft 216 kts
2026-04-26 13:25 16.52940 -22.94752 2491 ft 215 kts
2026-04-26 13:25 16.54405 -22.94762 2491 ft 214 kts
2026-04-26 13:26 16.55858 -22.94772 2495 ft 215 kts
2026-04-26 13:26 16.57348 -22.94782 2485 ft 207 kts
2026-04-26 13:26 16.58758 -22.94793 2465 ft 195 kts
2026-04-26 13:26 16.60086 -22.94803 2345 ft 189 kts
2026-04-26 13:27 16.61394 -22.94811 2176 ft 187 kts
2026-04-26 13:27 16.62671 -22.94820 2024 ft 176 kts
2026-04-26 13:27 16.63819 -22.94830 1907 ft 157 kts
2026-04-26 13:27 16.64862 -22.94838 1913 ft 132 kts
2026-04-26 13:28 16.65650 -22.94845 1920 ft 112 kts
2026-04-26 13:28 16.66420 -22.94847 1899 ft 107 kts
2026-04-26 13:28 16.67201 -22.94850 1720 ft 115 kts
2026-04-26 13:28 16.67992 -22.94855 1447 ft 115 kts
2026-04-26 13:29 16.68809 -22.94861 1181 ft 116 kts
2026-04-26 13:29 16.69352 -22.94865 1015 ft 115 kts
2026-04-26 13:29 16.70414 -22.94868 676 ft 116 kts
2026-04-26 13:29 16.71197 -22.94884 488 ft 108 kts
2026-04-26 13:30 16.71926 -22.94891 287 ft 107 kts
2026-04-26 13:30 16.72711 -22.94896 209 ft 111 kts
2026-04-26 13:30 16.73415 -22.94883 190 ft 88 kts
2026-04-26 13:30 16.73802 -22.94895 185 ft 43 kts 358°
2026-04-26 13:31 16.74087 -22.94897 182 ft 40 kts 359°
2026-04-26 13:31 16.74217 -22.94881 182 ft 7 kts 48°
2026-04-26 13:31 16.74241 -22.94841 182 ft 6 kts 58°
2026-04-26 13:31 16.74265 -22.94801 182 ft 6 kts 58°
2026-04-26 13:32 16.74292 -22.94754 182 ft 9 kts 63°
2026-04-26 13:32 16.74281 -22.94706 181 ft 6 kts 160°
2026-04-26 13:32 16.74241 -22.94701 181 ft 5 kts 176°
2026-04-26 13:32 16.74207 -22.94699 182 ft 6 kts 177°
2026-04-26 13:33 16.74133 -22.94698 182 ft 17 kts 181°
2026-04-26 13:33 16.73978 -22.94696 192 ft 25 kts 181°
2026-04-26 13:33 16.73802 -22.94696 196 ft 30 kts 180°
2026-04-26 13:33 16.73642 -22.94691 204 ft 8 kts 159°
2026-04-26 13:34 16.73613 -22.94645 204 ft 7 kts 90°
2026-04-26 13:34 16.73613 -22.94615 200 ft 4 kts 90°
2026-04-26 13:34 16.73613 -22.94583 197 ft 6 kts 89°
2026-04-26 13:34 16.73614 -22.94549 203 ft 7 kts 88°
2026-04-26 13:35 16.73641 -22.94523 200 ft 7 kts
2026-04-26 13:35 16.73652 -22.94526 197 ft 3 kts 335°
2026-04-26 13:35 16.73667 -22.94530 197 ft 0 kts 357°